Weather reports worldwide

Advertisment
Ancona, Italy (16190): temperature & dewpoint: 17.04.2018 01:00:00 - 23.04.2018 01:00:00 (CEST)Ancona, Italy (16190): reduced air pressure: 17.04.2018 01:00:00 - 23.04.2018 01:00:00 (CEST)Ancona, Italy (16190): precipitation: 17.04.2018 01:00:00 - 23.04.2018 01:00:00 (CEST)
Date & Time tt [°C] td [°C] ppp [hPa] rr [mm]
23.04.2018 01:00:00 14,3 11,2 1013,1 -
23.04.2018 00:00:00 14,5 12,5 1013,0 -
22.04.2018 23:00:00 14,3 12,5 1012,9 -
22.04.2018 22:00:00 14,5 12,5 1013,0 -
22.04.2018 21:00:00 15,1 12,2 1012,6 -
22.04.2018 20:00:00 16,9 11,8 1012,2 0,0
22.04.2018 19:00:00 18,5 10,3 1012,0 -
22.04.2018 18:00:00 19,6 11,1 1012,1 -
22.04.2018 17:00:00 19,1 13,8 1012,2 -
22.04.2018 16:00:00 19,2 12,8 1012,5 -
22.04.2018 15:00:00 20,6 11,7 1012,8 -
22.04.2018 14:00:00 21,2 10,9 1012,9 0,0
22.04.2018 13:00:00 23,1 10,1 1013,1 -
22.04.2018 12:00:00 21,4 10,8 1013,6 -
22.04.2018 11:00:00 19,8 11,2 1013,8 -
22.04.2018 10:00:00 18,3 12,5 1013,7 -
22.04.2018 09:00:00 16,5 12,0 1013,3 -
22.04.2018 08:00:00 14,6 10,2 1013,5 0,0
22.04.2018 07:00:00 12,9 8,9 1013,4 -
22.04.2018 06:00:00 14,5 7,5 1013,4 -
22.04.2018 05:00:00 13,7 9,1 1013,3 -
22.04.2018 04:00:00 12,7 9,7 1013,7 -
22.04.2018 03:00:00 13,8 6,8 1013,8 -
22.04.2018 02:00:00 15,2 6,7 1014,2 0,0
22.04.2018 01:00:00 17,0 5,5 1014,1 -
22.04.2018 00:00:00 16,6 6,6 1014,2 -
21.04.2018 23:00:00 16,4 6,4 1014,3 -
21.04.2018 22:00:00 16,5 6,5 1014,2 -
21.04.2018 21:00:00 16,7 7,0 1014,0 -
21.04.2018 20:00:00 17,9 7,3 1013,8 0,0
21.04.2018 19:00:00 19,7 8,6 1013,7 -
21.04.2018 18:00:00 20,9 8,1 1014,0 -
21.04.2018 17:00:00 20,1 6,7 1014,3 -
21.04.2018 16:00:00 20,5 8,4 1014,8 -
21.04.2018 15:00:00 19,2 10,7 1015,1 -
21.04.2018 14:00:00 19,6 13,4 1015,4 0,0
21.04.2018 13:00:00 20,5 12,9 1015,6 -
21.04.2018 12:00:00 20,3 9,5 1016,1 -
21.04.2018 11:00:00 18,4 12,3 1016,4 -
21.04.2018 10:00:00 17,4 11,8 1016,0 -
21.04.2018 09:00:00 16,6 11,5 1015,7 -
21.04.2018 08:00:00 15,6 11,5 1015,5 0,0
21.04.2018 07:00:00 14,8 10,8 1015,2 -
21.04.2018 06:00:00 15,3 10,4 1015,2 -
21.04.2018 05:00:00 15,5 10,2 1015,3 -
21.04.2018 04:00:00 15,9 8,3 1015,6 -
21.04.2018 03:00:00 16,4 10,0 1015,7 -
21.04.2018 02:00:00 17,1 8,2 1015,8 0,0
21.04.2018 01:00:00 17,3 8,1 1015,9 -
21.04.2018 00:00:00 17,8 8,8 1015,9 -
20.04.2018 23:00:00 18,1 8,3 1015,9 -
20.04.2018 22:00:00 18,2 8,7 1016,0 -
20.04.2018 21:00:00 17,2 9,3 1015,9 -
20.04.2018 20:00:00 17,8 9,9 1015,5 0,0
20.04.2018 19:00:00 18,2 10,0 1015,7 -
20.04.2018 18:00:00 18,6 12,5 1016,2 -
20.04.2018 17:00:00 19,2 13,5 1016,5 -
20.04.2018 16:00:00 19,0 13,1 1017,1 -
20.04.2018 15:00:00 18,9 14,3 1017,8 -
20.04.2018 14:00:00 18,1 14,3 1018,2 0,0
20.04.2018 13:00:00 18,0 13,6 1018,7 -
20.04.2018 12:00:00 18,1 13,1 1019,0 -
20.04.2018 11:00:00 17,0 12,3 1019,0 -
20.04.2018 10:00:00 17,0 9,4 1018,7 -
20.04.2018 09:00:00 16,2 8,6 1018,7 -
20.04.2018 08:00:00 15,6 8,0 1018,4 0,0
20.04.2018 07:00:00 15,1 8,5 1018,6 -
20.04.2018 06:00:00 15,5 9,1 1018,2 -
20.04.2018 05:00:00 15,7 9,3 1018,5 -
20.04.2018 04:00:00 15,6 9,2 1018,7 -
20.04.2018 03:00:00 15,8 7,5 1019,0 -
20.04.2018 02:00:00 16,0 7,4 1019,5 0,0
20.04.2018 01:00:00 16,0 9,6 1019,9 -
20.04.2018 00:00:00 16,0 9,6 1020,0 -
19.04.2018 23:00:00 15,8 8,5 1020,1 -
19.04.2018 22:00:00 15,5 11,6 1020,4 -
19.04.2018 21:00:00 15,7 10,0 1020,2 -
19.04.2018 20:00:00 16,3 8,7 1020,1 0,0
19.04.2018 19:00:00 17,5 9,6 1020,2 -
19.04.2018 18:00:00 17,6 11,8 1020,5 -
19.04.2018 17:00:00 17,9 12,5 1020,9 -
19.04.2018 16:00:00 17,8 12,4 1021,5 -
19.04.2018 15:00:00 18,7 12,4 1021,7 -
19.04.2018 14:00:00 17,6 13,0 1022,0 0,0
19.04.2018 13:00:00 17,2 12,8 1022,3 -
19.04.2018 12:00:00 16,1 12,6 1022,9 -
19.04.2018 11:00:00 15,6 12,3 1023,0 -
19.04.2018 10:00:00 15,3 11,8 1022,7 -
19.04.2018 09:00:00 14,3 10,9 1022,4 -
19.04.2018 08:00:00 13,2 10,3 1022,6 0,0
19.04.2018 07:00:00 12,7 10,0 1022,1 -
19.04.2018 06:00:00 12,8 10,3 1022,2 -
19.04.2018 05:00:00 12,9 10,2 1022,6 -
19.04.2018 04:00:00 13,2 10,2 1022,6 -
19.04.2018 03:00:00 13,5 10,5 1022,4 -
19.04.2018 02:00:00 13,6 10,2 1022,8 0,0
19.04.2018 01:00:00 13,8 10,2 1022,8 -
19.04.2018 00:00:00 14,0 10,4 1022,8 -
18.04.2018 23:00:00 14,3 10,5 1022,8 -
18.04.2018 22:00:00 13,7 10,7 1022,8 -
18.04.2018 21:00:00 14,3 10,9 1022,6 -
18.04.2018 20:00:00 14,8 11,2 1022,0 0,0
18.04.2018 19:00:00 15,6 11,7 1022,1 -
18.04.2018 18:00:00 16,1 11,8 1022,2 -
18.04.2018 17:00:00 17,1 12,4 1022,1 -
18.04.2018 16:00:00 17,2 12,8 1022,2 -
18.04.2018 15:00:00 18,0 12,8 1022,3 -
18.04.2018 14:00:00 18,2 12,4 1022,3 0,0
18.04.2018 13:00:00 17,0 13,4 1022,4 -
18.04.2018 12:00:00 16,3 13,5 1022,2 -
18.04.2018 11:00:00 15,0 12,3 1021,9 -
18.04.2018 10:00:00 15,2 13,0 1021,3 -
18.04.2018 09:00:00 15,1 13,6 1020,8 -
18.04.2018 08:00:00 14,1 13,1 1020,6 0,0
18.04.2018 07:00:00 13,5 12,8 1020,1 -
18.04.2018 06:00:00 13,8 13,0 1019,9 -
18.04.2018 05:00:00 13,9 12,6 1019,8 -
18.04.2018 04:00:00 14,1 12,3 1019,8 -
18.04.2018 03:00:00 14,2 12,2 1019,8 -
18.04.2018 02:00:00 14,2 12,4 1019,8 0,0
18.04.2018 01:00:00 13,9 12,3 1019,7 -
18.04.2018 00:00:00 14,0 12,5 1019,5 -
17.04.2018 23:00:00 13,8 12,2 1019,3 -
17.04.2018 22:00:00 14,1 12,3 1018,5 -
17.04.2018 21:00:00 14,0 12,0 1017,7 -
17.04.2018 20:00:00 15,1 12,6 1016,6 0,0
17.04.2018 19:00:00 15,8 13,6 1016,2 -
17.04.2018 18:00:00 16,1 13,7 1016,1 -
17.04.2018 17:00:00 16,4 14,2 1016,2 -
17.04.2018 16:00:00 17,0 14,4 1016,3 -
17.04.2018 15:00:00 16,8 14,7 1016,5 -
17.04.2018 14:00:00 16,6 14,7 1016,6 0,0
17.04.2018 13:00:00 16,1 14,2 1016,6 -
17.04.2018 12:00:00 16,0 14,6 1016,5 -
17.04.2018 11:00:00 15,1 14,7 1015,9 -
17.04.2018 10:00:00 14,0 13,9 1015,4 -
17.04.2018 09:00:00 13,5 13,4 1014,7 -
17.04.2018 08:00:00 12,6 12,6 1014,0 0,0
17.04.2018 07:00:00 12,6 12,6 1013,2 -
17.04.2018 06:00:00 12,6 12,6 1012,6 -
17.04.2018 05:00:00 12,7 12,7 1012,3 -
17.04.2018 04:00:00 13,0 12,9 1011,8 -
17.04.2018 03:00:00 13,0 12,8 1011,3 -
17.04.2018 02:00:00 12,7 12,5 1010,6 0,0
17.04.2018 01:00:00 13,2 13,1 1010,3 -

tt = temperature
td = dewpoint
ppp = reduced air pressure
rr = precipitation

Next stations